Meteo pe oră la Allondrelle-la-Malmaison

Astăzi, 22 Ianuarie, Vineri

Timp Temperatura Precipitaţii Vânt Presiune Umiditate
00:00 +6°C° 0.2 mm 10 m/s 716 mmHg 84%
01:00 +5°C° 0.9 mm 10 m/s 716 mmHg 86%
02:00 +5°C° 0.9 mm 10 m/s 716 mmHg 88%
03:00 +5°C° 0.9 mm 9 m/s 716 mmHg 90%
04:00 +4°C° 1.5 mm 7 m/s 717 mmHg 91%
05:00 +3°C° 1.5 mm 5 m/s 717 mmHg 92%
06:00 +3°C° 1.5 mm 3 m/s 717 mmHg 93%
07:00 +4°C° 0 mm 2 m/s 718 mmHg 92%
08:00 +5°C° 0 mm 1 m/s 718 mmHg 91%
09:00 +4°C° 0 mm 0 m/s 719 mmHg 90%
10:00 +4°C° 0.1 mm 0 m/s 719 mmHg 87%
11:00 +4°C° 0.1 mm 0 m/s 719 mmHg 84%
12:00 +5°C° 0.1 mm 0 m/s 719 mmHg 81%
13:00 +5°C° 0.2 mm 0 m/s 719 mmHg 81%
14:00 +4°C° 0.2 mm 0 m/s 719 mmHg 82%
15:00 +5°C° 0.2 mm 1 m/s 719 mmHg 82%
16:00 +5°C° 0 mm 1 m/s 719 mmHg 84%
17:00 +5°C° 0 mm 1 m/s 720 mmHg 86%
18:00 +4°C° 0 mm 1 m/s 720 mmHg 89%
19:00 +4°C° 0 mm 1 m/s 721 mmHg 90%
20:00 +4°C° 0 mm 1 m/s 721 mmHg 91%
21:00 +2°C° 0 mm 2 m/s 721 mmHg 93%
22:00 +2°C° 0 mm 2 m/s 721 mmHg 94%
23:00 +3°C° 0 mm 1 m/s 722 mmHg 95%

Mâine, 23 Ianuarie, Sâmbătă

Timp Temperatura Precipitaţii Vânt Presiune Umiditate
00:00 +2°C° 0 mm 1 m/s 722 mmHg 96%
01:00 +2°C° 0 mm 1 m/s 722 mmHg 96%
02:00 +1°C° 0 mm 2 m/s 721 mmHg 97%
03:00 +1°C° 0 mm 2 m/s 721 mmHg 97%
04:00 +1°C° 0 mm 2 m/s 721 mmHg 97%
05:00 0°C° 0 mm 3 m/s 721 mmHg 97%
06:00 0°C° 0 mm 4 m/s 720 mmHg 96%
07:00 0°C° 0 mm 4 m/s 720 mmHg 95%
08:00 0°C° 0 mm 4 m/s 720 mmHg 94%
09:00 0°C° 0 mm 4 m/s 720 mmHg 93%
10:00 0°C° 0 mm 4 m/s 720 mmHg 91%
11:00 0°C° 0 mm 4 m/s 721 mmHg 90%
12:00 +2°C° 0 mm 3 m/s 721 mmHg 88%
13:00 +2°C° 0 mm 3 m/s 720 mmHg 88%
14:00 +3°C° 0 mm 2 m/s 720 mmHg 87%
15:00 +3°C° 0 mm 2 m/s 720 mmHg 87%
16:00 +2°C° 0 mm 2 m/s 720 mmHg 88%
17:00 +3°C° 0 mm 1 m/s 720 mmHg 90%
18:00 +2°C° 0 mm 1 m/s 720 mmHg 91%
19:00 +2°C° 0.1 mm 1 m/s 721 mmHg 92%
20:00 +1°C° 0.1 mm 2 m/s 721 mmHg 92%
21:00 -1°C° 0.1 mm 2 m/s 721 mmHg 93%
22:00 -1°C° 0.2 mm 2 m/s 721 mmHg 94%
23:00 -1°C° 0.2 mm 2 m/s 722 mmHg 95%

Poimâine, 24 Ianuarie, Duminică

Timp Temperatura Precipitaţii Vânt Presiune Umiditate
00:00 -1°C° 0.2 mm 2 m/s 722 mmHg 96%
01:00 -1°C° 0 mm 3 m/s 722 mmHg 95%
02:00 -1°C° 0 mm 3 m/s 723 mmHg 95%
03:00 -2°C° 0 mm 3 m/s 723 mmHg 94%
04:00 -2°C° 0 mm 3 m/s 723 mmHg 95%
05:00 -2°C° 0 mm 3 m/s 724 mmHg 95%
06:00 -4°C° 0 mm 3 m/s 724 mmHg 96%
07:00 -2°C° 0 mm 3 m/s 724 mmHg 95%
08:00 -2°C° 0 mm 3 m/s 724 mmHg 94%
09:00 -2°C° 0 mm 2 m/s 724 mmHg 93%
10:00 -1°C° 0 mm 3 m/s 724 mmHg 91%
11:00 -1°C° 0 mm 3 m/s 724 mmHg 90%
12:00 0°C° 0 mm 3 m/s 724 mmHg 88%
13:00 0°C° 0.3 mm 3 m/s 723 mmHg 90%
14:00 -2°C° 0.3 mm 4 m/s 723 mmHg 91%
15:00 -2°C° 0.3 mm 4 m/s 722 mmHg 93%
16:00 -2°C° 0.8 mm 4 m/s 722 mmHg 94%
17:00 -1°C° 0.8 mm 3 m/s 722 mmHg 96%
18:00 -1°C° 0.8 mm 3 m/s 722 mmHg 97%
19:00 -1°C° 0.3 mm 2 m/s 723 mmHg 98%
20:00 -1°C° 0.3 mm 2 m/s 723 mmHg 98%
21:00 +1°C° 0.3 mm 1 m/s 723 mmHg 98%
22:00 0°C° 0.2 mm 1 m/s 724 mmHg 98%
23:00 0°C° 0.2 mm 1 m/s 724 mmHg 98%

25 Ianuarie, Luni

Timp Temperatura Precipitaţii Vânt Presiune Umiditate
00:00 0°C° 0.2 mm 1 m/s 725 mmHg 98%
01:00 0°C° 0.1 mm 1 m/s 725 mmHg 97%
02:00 -3°C° 0.1 mm 2 m/s 726 mmHg 96%
03:00 -4°C° 0.1 mm 3 m/s 727 mmHg 96%
04:00 -4°C° 0 mm 2 m/s 727 mmHg 95%
05:00 -4°C° 0 mm 2 m/s 728 mmHg 95%
06:00 -3°C° 0 mm 1 m/s 729 mmHg 95%
07:00 -4°C° 0 mm 2 m/s 729 mmHg 94%
08:00 -5°C° 0 mm 3 m/s 729 mmHg 94%
09:00 -4°C° 0 mm 4 m/s 730 mmHg 94%
10:00 -4°C° 0.5 mm 5 m/s 730 mmHg 95%
11:00 -4°C° 0.5 mm 5 m/s 730 mmHg 96%
12:00 -3°C° 0.5 mm 6 m/s 730 mmHg 97%
13:00 -3°C° 0.8 mm 6 m/s 730 mmHg 97%
14:00 -3°C° 0.8 mm 6 m/s 730 mmHg 97%
15:00 -2°C° 0.8 mm 6 m/s 730 mmHg 96%
16:00 -2°C° 0.1 mm 5 m/s 731 mmHg 95%
17:00 -2°C° 0.1 mm 5 m/s 731 mmHg 95%
18:00 -3°C° 0.1 mm 4 m/s 732 mmHg 94%
19:00 -3°C° 0 mm 4 m/s 732 mmHg 94%
20:00 -2°C° 0 mm 3 m/s 733 mmHg 95%
21:00 -2°C° 0 mm 3 m/s 733 mmHg 96%
22:00 -3°C° 0.1 mm 4 m/s 733 mmHg 97%
23:00 -2°C° 0.1 mm 4 m/s 734 mmHg 97%

26 Ianuarie, Marţi

Timp Temperatura Precipitaţii Vânt Presiune Umiditate
00:00 -1°C° 0.1 mm 5 m/s 734 mmHg 98%
01:00 -2°C° 0 mm 5 m/s 734 mmHg 97%
02:00 -2°C° 0 mm 4 m/s 734 mmHg 96%
03:00 -3°C° 0 mm 4 m/s 734 mmHg 95%
04:00 -3°C° 0 mm 4 m/s 735 mmHg 95%
05:00 -4°C° 0 mm 3 m/s 735 mmHg 96%
06:00 -4°C° 0 mm 3 m/s 735 mmHg 96%
07:00 -4°C° 0 mm 3 m/s 736 mmHg 96%
08:00 -2°C° 0 mm 3 m/s 736 mmHg 96%
09:00 -2°C° 0 mm 3 m/s 737 mmHg 96%
10:00 -2°C° 0 mm 3 m/s 737 mmHg 97%
11:00 -1°C° 0 mm 3 m/s 737 mmHg 97%
12:00 0°C° 0 mm 3 m/s 736 mmHg 98%
13:00 0°C° 0 mm 3 m/s 736 mmHg 98%
14:00 0°C° 0 mm 3 m/s 736 mmHg 98%
15:00 0°C° 0 mm 3 m/s 736 mmHg 98%
16:00 -1°C° 0.4 mm 4 m/s 735 mmHg 98%
17:00 -1°C° 0.4 mm 4 m/s 735 mmHg 99%
18:00 -1°C° 0.4 mm 4 m/s 734 mmHg 99%
19:00 0°C° 1 mm 5 m/s 734 mmHg 99%
20:00 -1°C° 1 mm 6 m/s 733 mmHg 99%
21:00 -1°C° 1 mm 6 m/s 732 mmHg 99%
22:00 +1°C° 0.3 mm 6 m/s 732 mmHg 98%
23:00 0°C° 0.3 mm 7 m/s 732 mmHg 98%

27 Ianuarie, Miercuri

Timp Temperatura Precipitaţii Vânt Presiune Umiditate
00:00 +2°C° 0.3 mm 7 m/s 731 mmHg 97%
01:00 +2°C° 0.1 mm 7 m/s 732 mmHg 97%
02:00 +3°C° 0.1 mm 6 m/s 732 mmHg 97%
03:00 +3°C° 0.1 mm 6 m/s 732 mmHg 96%
04:00 +3°C° 0 mm 6 m/s 733 mmHg 96%
05:00 +3°C° 0 mm 6 m/s 733 mmHg 95%
06:00 +2°C° 0 mm 5 m/s 734 mmHg 95%
07:00 +2°C° 0 mm 5 m/s 734 mmHg 95%
08:00 +2°C° 0 mm 5 m/s 735 mmHg 95%
09:00 +2°C° 0 mm 5 m/s 736 mmHg 95%
10:00 +2°C° 0 mm 5 m/s 736 mmHg 95%
11:00 +2°C° 0 mm 5 m/s 736 mmHg 94%
12:00 +3°C° 0 mm 5 m/s 736 mmHg 94%
13:00 +4°C° 0 mm 4 m/s 737 mmHg 94%
14:00 +4°C° 0 mm 4 m/s 737 mmHg 94%
15:00 +4°C° 0 mm 4 m/s 737 mmHg 94%
16:00 +4°C° 0 mm 4 m/s 737 mmHg 95%
17:00 +4°C° 0 mm 4 m/s 737 mmHg 95%
18:00 +4°C° 0 mm 4 m/s 737 mmHg 96%
19:00 +4°C° 0 mm 4 m/s 737 mmHg 96%
20:00 +4°C° 0 mm 4 m/s 737 mmHg 96%
21:00 +4°C° 0 mm 4 m/s 737 mmHg 96%
22:00 +4°C° 0 mm 4 m/s 736 mmHg 96%
23:00 +3°C° 0 mm 5 m/s 735 mmHg 96%
Arată mai mult

Formular de consimțământ

Meteoprog și furnizorii noștri de servicii pot stoca și accesa date personale, precum cookies, identificatori de dispozitiv sau alte tehnologii similare pe dispozitivul dumneavoastră și procesa astfel de date pentru a personaliza conținutul și reclamele, dar și pentru a oferi caracteristici de social media și pentru a analiza traficul.

  • Stocarea și/sau accesarea informațiilor pe dispozitivul dumneavoastră

    Cookies, identificatori de dispozitiv sau alte informații pot fi stocate sau accesate pe dispozitiv în scopurile indicate mai sus.

  • Reclame și conținut personalizat, evaluarea reclamelor și a conținutului, informații despre audiențe și dezvoltarea produselor

    Reclamele și conținutul pot fi personalizate pe baza unui profil. Pot fi adăugate date suplimentare pentru a personaliza mai bine reclamele și conținutul. Performanța reclamelor și conținutului poate fi măsurată. Pot fi obținute informații despre utilizatorii care au văzut reclamele și conținutul. Aceste date pot fi utilizate pentru a dezvolta sau îmbunătăți experiența utilizatorilor, sistemele și software-ul.

Dând clic pe ‘Sunt de acord’, permiteți utilizarea cookie-urilor menționate, a identificatorilor de dispozitiv, balizelor web sau altor tehnologii similare. Setările pot fi modificate din browser-ul dispozitivului dumneavoastră.

În anumite scopuri, interesele legitime pot prima asupra consimțământului. Puteți citi mai multe informații în acest sens în Politica privind Confidențialitatea Datelor și Cookie.